EW3693 Weather Reports


Display with metric or nautical units.
time (UTC)temp
F
wind
direction
speed
MPH
gust
MPH
rain 1hr
in
rain 24hr
in
rain mn
in
humidity
%
barometer
mb
20240228045046 34 248 2.0 3.0 0.00 0.00 0.00 97 1017.6
20240228044025 34 270 4.0 6.0 0.00 0.00 0.00 97 1017.6
20240228043026 34 248 6.0 10.0 0.00 0.00 0.00 97 1017.5
20240228042025 33 248 6.0 9.0 0.00 0.00 0.00 97 1017.5
20240228041027 33 248 4.0 10.0 0.00 0.00 0.00 97 1017.5
20240228040108 33 270 6.0 8.0 0.00 0.00 0.00 97 1017.3
20240228035028 33 270 4.0 7.0 0.00 0.00 0.00 97 1017.2
20240228034027 33 180 2.0 4.0 0.00 0.00 0.00 97 1017.1
20240228033027 33 180 2.0 3.0 0.00 0.00 0.00 97 1016.9
20240228032048 33 248 3.0 5.0 0.00 0.00 0.00 97 1017.0
20240228031027 34 270 4.0 9.0 0.00 0.00 0.00 97 1017.1
20240228030027 34 270 3.0 6.0 0.00 0.01 0.00 97 1017.0
20240228025027 34 270 6.0 8.0 0.00 0.01 0.00 97 1016.9
20240228024027 34 270 5.0 7.0 0.00 0.01 0.00 97 1016.9
20240228023028 34 248 4.0 5.0 0.00 0.01 0.00 97 1016.9
20240228022027 34 248 4.0 7.0 0.00 0.01 0.00 97 1016.9
20240228021027 34 248 3.0 4.0 0.00 0.01 0.00 97 1017.1
20240228020027 35 248 5.0 8.0 0.00 0.01 0.00 97 1017.2
20240228015047 35 270 6.0 9.0 0.00 0.01 0.00 97 1017.3
20240228014048 35 270 6.0 10.0 0.00 0.01 0.00 97 1017.2
20240228013027 35 293 3.0 7.0 0.00 0.01 0.00 97 1017.2
20240228012027 35 293 5.0 8.0 0.00 0.01 0.00 97 1017.1
20240228011028 35 248 5.0 10.0 0.00 0.01 0.00 97 1017.2
20240228010027 35 270 6.0 8.0 0.00 0.01 0.00 97 1017.3
20240228005027 35 293 5.0 7.0 0.00 0.01 0.00 97 1017.3
20240228004027 35 293 4.0 8.0 0.00 0.01 0.00 97 1017.3
20240228003027 35 248 5.0 7.0 0.00 0.01 0.00 97 1017.2
20240228002047 35 293 2.0 3.0 0.00 0.01 0.00 97 1017.1
20240228001027 35 293 4.0 9.0 0.00 0.01 0.00 97 1017.2
20240228000027 35 270 1.0 3.0 0.00 0.01 0.00 97 1017.2
20240227235028 35 270 3.0 6.0 0.00 0.01 0.00 97 1017.2
20240227234026 35 315 1.0 2.0 0.00 0.01 0.00 97 1017.2
20240227233027 35 338 2.0 8.0 0.00 0.01 0.00 97 1017.4
20240227232027 35 293 4.0 7.0 0.00 0.01 0.00 97 1017.3
20240227231027 35 338 1.0 2.0 0.00 0.01 0.00 97 1017.3
20240227230027 35 338 2.0 4.0 0.00 0.01 0.01 97 1017.2
20240227225026 35 248 2.0 3.0 0.00 0.01 0.01 97 1017.1
20240227224046 35 225 3.0 4.0 0.00 0.01 0.01 97 1017.0
20240227223108 35 0.0 2.0 0.00 0.01 0.01 97 1017.0
20240227222026 35 180 2.0 3.0 0.00 0.01 0.01 97 1017.0
20240227221028 35 45 1.0 2.0 0.00 0.01 0.01 97 1017.0
20240227220027 35 0.0 1.0 0.00 0.01 0.01 97 1017.1
20240227215027 35 45 1.0 2.0 0.00 0.01 0.01 97 1017.1
20240227214027 35 45 1.0 2.0 0.00 0.01 0.01 97 1017.1
20240227213026 35 45 1.0 3.0 0.00 0.01 0.01 97 1017.2
20240227212026 35 23 1.0 5.0 0.00 0.01 0.01 97 1017.2
20240227211027 35 45 2.0 5.0 0.00 0.01 0.01 97 1017.3
20240227210046 35 90 2.0 4.0 0.00 0.01 0.01 97 1017.3
20240227205026 35 45 3.0 7.0 0.00 0.01 0.01 97 1017.2
20240227204047 36 90 1.0 3.0 0.00 0.01 0.01 97 1017.1
20240227203026 36 68 4.0 7.0 0.00 0.01 0.01 97 1017.1
20240227202026 36 68 2.0 4.0 0.00 0.01 0.01 97 1017.2
20240227201028 36 68 1.0 3.0 0.00 0.01 0.01 97 1017.1
20240227200026 36 68 2.0 4.0 0.00 0.01 0.01 97 1017.0
20240227195027 36 68 4.0 7.0 0.00 0.01 0.01 97 1016.9
20240227194026 36 45 2.0 4.0 0.00 0.01 0.01 97 1016.8
20240227193026 36 45 2.0 5.0 0.00 0.01 0.01 97 1016.9
20240227192027 36 0 3.0 8.0 0.00 0.01 0.01 97 1017.0
20240227191026 36 23 3.0 5.0 0.00 0.01 0.01 97 1017.0
20240227190026 36 45 2.0 3.0 0.00 0.01 0.01 97 1017.0
20240227185026 36 68 2.0 4.0 0.00 0.01 0.01 97 1016.8
20240227184108 36 23 3.0 6.0 0.00 0.01 0.01 97 1016.7
20240227183026 36 338 4.0 8.0 0.00 0.01 0.01 97 1016.7
20240227182026 36 0.0 2.0 0.00 0.01 0.01 97 1016.5
20240227181027 36 68 1.0 4.0 0.00 0.01 0.01 97 1016.5
20240227180026 37 90 3.0 7.0 0.00 0.01 0.01 97 1016.5
20240227175107 37 68 3.0 6.0 0.00 0.01 0.01 97 1016.4
20240227174026 37 68 1.0 4.0 0.00 0.01 0.01 98 1016.4
20240227173047 37 338 2.0 4.0 0.00 0.01 0.01 97 1016.4
20240227172026 37 0 3.0 5.0 0.00 0.01 0.01 97 1016.4
20240227171026 37 338 4.0 6.0 0.00 0.01 0.01 97 1016.3
20240227170026 37 338 4.0 9.0 0.00 0.01 0.01 97 1016.2
20240227165026 37 338 6.0 9.0 0.00 0.01 0.01 97 1016.2
20240227164026 37 338 3.0 6.0 0.00 0.01 0.01 97 1016.1
20240227163046 37 338 4.0 5.0 0.00 0.01 0.01 97 1015.9
20240227162026 37 0 4.0 9.0 0.00 0.01 0.01 97 1015.9
20240227161046 37 0 4.0 8.0 0.00 0.01 0.01 97 1015.8
20240227160026 37 0 3.0 5.0 0.00 0.01 0.01 97 1015.8
20240227155026 37 338 4.0 8.0 0.00 0.01 0.01 97 1015.8
20240227154026 37 338 6.0 9.0 0.00 0.01 0.01 97 1015.8
20240227153027 37 0 4.0 7.0 0.00 0.01 0.01 97 1015.9
20240227152026 37 338 5.0 9.0 0.00 0.01 0.01 97 1015.9
20240227151026 37 23 3.0 7.0 0.00 0.01 0.01 97 1015.9
20240227150026 38 45 2.0 5.0 0.00 0.01 0.01 97 1015.7
20240227145026 37 45 4.0 8.0 0.00 0.01 0.01 97 1015.6
20240227144026 38 45 1.0 4.0 0.00 0.01 0.01 97 1015.6
20240227143026 38 68 4.0 9.0 0.00 0.01 0.01 98 1015.7
20240227142025 38 45 3.0 7.0 0.00 0.01 0.01 98 1015.8
20240227141025 38 23 3.0 8.0 0.00 0.01 0.01 98 1015.7
20240227140106 38 23 3.0 7.0 0.00 0.01 0.01 98 1015.7
20240227135026 38 0 2.0 8.0 0.00 0.01 0.01 97 1015.7
20240227134046 38 0 4.0 7.0 0.00 0.01 0.01 98 1015.8
20240227133025 38 23 4.0 9.0 0.00 0.01 0.01 98 1015.9
20240227132026 38 23 3.0 8.0 0.00 0.01 0.01 98 1016.0
20240227131026 38 0 5.0 9.0 0.00 0.01 0.01 98 1016.1
20240227130045 38 0 6.0 9.0 0.00 0.01 0.01 98 1016.1
20240227125027 38 338 6.0 11.0 0.00 0.01 0.01 98 1016.2
20240227124026 38 338 7.0 10.0 0.00 0.01 0.01 98 1016.2
20240227123025 38 0 6.0 11.0 0.00 0.01 0.01 98 1016.1
20240227122025 38 0 5.0 9.0 0.00 0.01 0.01 98 1016.1
20240227121026 38 338 7.0 11.0 0.00 0.01 0.01 98 1016.1
20240227120025 38 338 6.0 10.0 0.00 0.02 0.01 98 1016.2
20240227115025 38 0 6.0 10.0 0.00 0.02 0.01 98 1016.1
20240227114026 38 338 5.0 9.0 0.00 0.02 0.01 98 1016.1
20240227113025 38 0 5.0 8.0 0.00 0.02 0.01 98 1016.1
20240227112025 38 338 6.0 10.0 0.00 0.02 0.01 98 1016.1
20240227111025 38 338 5.0 9.0 0.00 0.02 0.01 98 1016.0
20240227110026 37 338 6.0 12.0 0.00 0.03 0.01 98 1016.0
20240227105025 37 338 7.0 10.0 0.00 0.03 0.01 98 1016.2
20240227104028 37 338 6.0 9.0 0.00 0.03 0.01 98 1016.2
20240227103028 37 338 8.0 12.0 0.00 0.03 0.01 98 1016.3
20240227102027 37 0 7.0 12.0 0.00 0.03 0.01 98 1016.2
20240227101028 37 0 6.0 10.0 0.00 0.03 0.01 98 1016.3
20240227100027 37 0 7.0 11.0 0.00 0.05 0.01 98 1016.3
20240227095048 37 0 6.0 10.0 0.00 0.05 0.01 98 1016.2
20240227094027 37 338 10.0 13.0 0.00 0.05 0.01 98 1016.2
20240227093027 37 338 7.0 13.0 0.00 0.05 0.01 98 1016.0
20240227092028 37 0 7.0 13.0 0.00 0.05 0.01 98 1016.1
20240227091027 38 0 7.0 13.0 0.00 0.05 0.01 98 1016.1
20240227090027 38 0 7.0 12.0 0.00 0.06 0.01 98 1016.0
20240227085047 38 0 7.0 12.0 0.00 0.06 0.01 98 1015.9
20240227084047 38 338 6.0 10.0 0.00 0.06 0.01 98 1015.8
20240227083048 38 338 6.0 13.0 0.00 0.06 0.01 98 1015.9
20240227082027 38 0 6.0 11.0 0.00 0.06 0.01 98 1015.8
20240227081047 38 338 8.0 15.0 0.00 0.06 0.01 98 1015.7
20240227080027 38 0 7.0 13.0 0.00 0.06 0.01 98 1015.6
20240227075027 38 0 4.0 8.0 0.00 0.06 0.01 98 1015.7
20240227074027 38 0 3.0 6.0 0.00 0.06 0.01 98 1015.6
20240227073047 37 23 2.0 7.0 0.00 0.06 0.01 98 1015.7
20240227072027 37 45 3.0 10.0 0.00 0.06 0.01 98 1015.5
20240227071027 37 23 3.0 8.0 0.00 0.06 0.01 98 1015.4
20240227070027 36 45 2.0 5.0 0.00 0.06 0.01 98 1015.3
20240227065027 36 0 5.0 10.0 0.00 0.06 0.01 98 1015.4
20240227064028 36 0 5.0 8.0 0.00 0.06 0.01 98 1015.2
20240227063027 36 0 4.0 8.0 0.00 0.06 0.01 98 1015.1
20240227062027 36 0 5.0 10.0 0.00 0.06 0.01 98 1015.0
20240227061027 36 0 6.0 12.0 0.00 0.06 0.01 98 1014.9
20240227060048 36 0 6.0 10.0 0.00 0.06 0.01 98 1014.7
20240227055027 36 0 6.0 11.0 0.00 0.06 0.01 98 1014.5
20240227054026 36 0 6.0 11.0 0.00 0.06 0.01 98 1014.6
20240227053027 36 0 6.0 11.0 0.00 0.06 0.01 97 1014.5
20240227052027 37 0 6.0 11.0 0.00 0.06 0.01 98 1014.4
20240227051026 37 0 6.0 11.0 0.00 0.06 0.01 98 1014.5
20240227050027 37 0 6.0 11.0 0.00 0.06 0.01 98 1014.6